Showing default

GCOM W1, 38337

Orbit data source: Space-Track

GCOM W1, 38337 is a payload satellite owned by JAXA (JP) in SSO that was launched on Thu, 17 May 2012 UTC via an H-IIA 202 launch vehicle from the Tanegashima Space Center (TNSTA). Payload-class satellites include a variety of spacecraft equipped with specific instruments for various scientific and technological missions. These include communications satellites like Starlink; space stations such as the ISS; scientific satellites like the Hubble; Earth observation satellites from companies like Planet Labs, Umbra, and HawkEye 360; GPS; miniature CubeSats for education and research; and military/defense satellites.

Loading next visibility...
Identifier
38337, 2012-025A
Orbit
SSO
Country
Flag of JPJP / JPN
Related business
Manufacturer
NECTF?
Mission
Operational Civil Science
Bus & Motor
GCOM, AOCS
Mass
1,991 kg wet, 1,841 kg dry
Launch date (UTC)
2012-05-17 (14 years ago)
Launch vehicle
H-IIA 202
Launch site
Tanegashima Space Center (TNSTA)
Object type
Payload
Rocket body
Debris
Shape & HBR
Box + 2 Pan + 1 Dish, 8.8 m
Radar Cross Section
35.969 m², Large (>1 m²)

Expand to show TLE details & history
Last TLE update: 12 hours ago

TLE from 12 hours ago
0 GCOM W1
1 38337U 12025A   26169.81648034  .00000349  00000-0  87400-4 0  9991
2 38337  98.2021 110.3474 0001764  74.0982 338.1707 14.57125866749279
Epoch: 2026-06-18T19:35Z
TLE epoch observation values (Epoch: 2026-06-18T19:35:43.901Z)
Latitude
51.61249°
Longitude
-101.06578°
Altitude
709.641 km
Speed
7.507 km/s
True Right ascension
06h 39m 41s
True Declination
51° 26' 38"
Sunlit
Object was in daylight at epoch
Visualization orbit readout
Latitude
Unknown
Longitude
Unknown
Altitude
Unknown
Speed
Unknown
Apparent Right ascension
Unknown
Apparent Declination
Unknown
Sunlit
N/A
Visualization observer readout
Local Sidereal Time
18:54:54
Azimuth
Unknown
Elevation
Unknown
Doppler factor
Unknown
Orbital elements
Apogee altitude
700.803 km
Perigee altitude
698.306 km
Semi-major axis
7,077.692 km
Eccentricity
0.00018
Inclination
98.2021°
RAAN
110.3474°
Arg. of periapsis
74.0982°
True anomaly
338.16318°
Mean anomaly
338.1707°
Eccentric anomaly
338.16694°
Mean motion
3.64507 °/min
Orbital period
98.76 mins
BSTAR
0.0000874
Loading maneuver chart data...
Computing Atmospheric mass density...

Documentation

Showing up to 5 results
|